TimeEDT,TemperatureF,Dew PointF,Humidity,Sea Level PressureIn,VisibilityMPH,Wind Direction,Wind SpeedMPH,Gust SpeedMPH,PrecipitationIn,Events,Conditions,WindDirDegrees,DateUTC
12:54 AM,51.1,48.9,92,30.14,10.0,North,4.6,-,N/A,,Overcast,10,2013-09-27 04:54:00
1:54 AM,51.1,48.9,92,30.15,10.0,NNE,3.5,-,N/A,,Overcast,20,2013-09-27 05:54:00
2:54 AM,50.0,48.9,96,30.15,10.0,North,5.8,-,N/A,,Overcast,360,2013-09-27 06:54:00
3:54 AM,50.0,48.0,93,30.14,10.0,NNE,3.5,-,N/A,,Scattered Clouds,30,2013-09-27 07:54:00
4:54 AM,48.0,46.9,96,30.16,10.0,North,4.6,-,N/A,,Overcast,350,2013-09-27 08:54:00
5:54 AM,48.0,46.9,96,30.18,10.0,NNE,3.5,-,N/A,,Overcast,30,2013-09-27 09:54:00
6:54 AM,46.0,45.0,96,30.19,10.0,NE,3.5,-,N/A,,Partly Cloudy,50,2013-09-27 10:54:00
7:54 AM,46.0,46.0,100,30.22,8.0,NNE,4.6,-,N/A,,Partly Cloudy,30,2013-09-27 11:54:00
7:59 AM,46.4,46.4,100,30.22,1.8,NNE,4.6,-,N/A,,Mostly Cloudy,30,2013-09-27 11:59:00
8:08 AM,44.6,44.6,100,30.22,0.2,NNE,4.6,-,N/A,Fog,Fog,30,2013-09-27 12:08:00
8:54 AM,46.9,46.9,100,30.24,0.2,NE,3.5,-,N/A,Fog,Fog,40,2013-09-27 12:54:00
9:01 AM,48.2,48.2,100,30.24,1.0,NE,4.6,-,N/A,,Mist,40,2013-09-27 13:01:00
9:06 AM,48.2,48.2,100,30.24,4.0,NE,3.5,-,N/A,,Overcast,50,2013-09-27 13:06:00
9:23 AM,48.2,48.2,100,30.24,10.0,NE,3.5,-,N/A,,Mostly Cloudy,50,2013-09-27 13:23:00
9:54 AM,55.0,50.0,83,30.24,10.0,NE,5.8,-,N/A,,Clear,40,2013-09-27 13:54:00
10:54 AM,60.1,51.1,72,30.24,10.0,NE,5.8,-,N/A,,Clear,40,2013-09-27 14:54:00
11:54 AM,63.0,52.0,67,30.24,10.0,North,5.8,-,N/A,,Clear,10,2013-09-27 15:54:00
12:54 PM,68.0,52.0,56,30.22,10.0,Variable,5.8,-,N/A,,Partly Cloudy,0,2013-09-27 16:54:00
1:54 PM,69.1,50.0,51,30.21,10.0,ENE,5.8,-,N/A,,Clear,70,2013-09-27 17:54:00
2:54 PM,71.1,48.0,44,30.20,10.0,NE,5.8,-,N/A,,Partly Cloudy,50,2013-09-27 18:54:00
3:54 PM,71.1,46.0,41,30.19,10.0,Calm,Calm,-,N/A,,Partly Cloudy,0,2013-09-27 19:54:00
4:54 PM,69.1,46.9,45,30.19,10.0,East,5.8,-,N/A,,Clear,80,2013-09-27 20:54:00
5:54 PM,68.0,46.9,47,30.20,10.0,East,5.8,-,N/A,,Clear,90,2013-09-27 21:54:00
6:54 PM,64.9,46.9,52,30.21,10.0,ENE,5.8,-,N/A,,Clear,70,2013-09-27 22:54:00
7:54 PM,57.0,51.1,81,30.23,10.0,North,6.9,-,N/A,,Clear,350,2013-09-27 23:54:00
8:54 PM,54.0,50.0,86,30.23,10.0,North,6.9,-,N/A,,Clear,350,2013-09-28 00:54:00
9:54 PM,51.1,48.9,92,30.25,10.0,North,6.9,-,N/A,,Clear,350,2013-09-28 01:54:00
10:54 PM,48.9,48.0,97,30.26,10.0,North,4.6,-,N/A,,Clear,350,2013-09-28 02:54:00
11:54 PM,48.0,46.9,96,30.26,10.0,North,3.5,-,N/A,,Clear,350,2013-09-28 03:54:00